This is the latest recevied weather packets stored in our database for station/object N3WMC. If no packets are shown the sender has not sent any weather packets the latest 10 day(s).
| Time | Temp. | Humidity | Pressure | Rain* | Wind** | Luminosity | Snow |
|---|---|---|---|---|---|---|---|
| 1787411360 | 25° C | 72% | 1015.9 hPa | 0 mm | - | 542 W/m² | - |
| 1787411055 | 24.44° C | 73% | 1016.1 hPa | 0 mm | - | 529 W/m² | - |
| 1787410751 | 25.56° C | 72% | 1016.1 hPa | 0 mm | - | 523 W/m² | - |
| 1787410446 | 25° C | 71% | 1016 hPa | 0 mm | - | 514 W/m² | - |
| 1787410141 | 25° C | 71% | 1016.3 hPa | 0 mm | - | 500 W/m² | - |
| 1787409838 | 24.44° C | 72% | 1016 hPa | 0 mm | - | 498 W/m² | - |
| 1787409533 | 25° C | 72% | 1016.4 hPa | 0 mm | - | 490 W/m² | - |
| 1787409229 | 24.44° C | 74% | 1016.1 hPa | 0 mm | - | 482 W/m² | - |
| 1787408925 | 23.89° C | 72% | 1015.9 hPa | 0 mm | - | 470 W/m² | - |
| 1787408314 | 23.89° C | 74% | 1016 hPa | 0 mm | - | 451 W/m² | - |
| 1787408011 | 23.33° C | 72% | 1016.3 hPa | 0 mm | - | 441 W/m² | - |
| 1787407701 | 23.33° C | 74% | 1016.5 hPa | 0 mm | - | 430 W/m² | - |
| 1787407395 | 23.33° C | 74% | 1016.1 hPa | 0 mm | - | 411 W/m² | - |
| 1787407091 | 23.33° C | 73% | 1016.5 hPa | 0 mm | - | 406 W/m² | - |
| 1787406787 | 22.22° C | 75% | 1016.6 hPa | 0 mm | - | 394 W/m² | - |
| 1787406481 | 22.22° C | 75% | 1016.6 hPa | 0 mm | - | 391 W/m² | - |
| 1787406178 | 22.22° C | 74% | 1016.7 hPa | 0 mm | - | 374 W/m² | - |
| 1787405874 | 22.78° C | 73% | 1016.4 hPa | 0 mm | - | 359 W/m² | - |
| 1787405570 | 21.67° C | 75% | 1016.5 hPa | 0 mm | - | 349 W/m² | - |
| 1787405269 | 21.67° C | 76% | 1016.6 hPa | 0 mm | - | 338 W/m² | - |
| 1787404966 | 21.67° C | 75% | 1016.9 hPa | 0 mm | - | 324 W/m² | - |
| 1787404662 | 21.67° C | 75% | 1016.9 hPa | 0 mm | - | 320 W/m² | - |
| 1787404361 | 21.11° C | 77% | 1016.8 hPa | 0 mm | - | 319 W/m² | - |
| 1787404057 | 21.11° C | 77% | 1016.8 hPa | 0 mm | - | 315 W/m² | - |
| 1787403751 | 20.56° C | 79% | 1017 hPa | 0 mm | - | 316 W/m² | - |
* Rain latest hour (hover to see other rain measurements)
** Current wind speed in m/s (hover to see current wind gust speed)